Regional Weather Roundup
Issued by NWS Charleston, SC

Home | Current Version | Previous Version | Text Only | Print | Product List | Glossary On
Versions: 1 2 3 4 5 6 7 8 9 10 11 12 13 14 15 16 17 18 19 20 21 22 23 24 25 26 27 28 29 30 31 32 33 34 35 36 37 38 39 40 41 42 43 44 45 46 47 48 49 50
000
ASUS42 KCHS 240911
RWRCHS

REGIONAL WEATHER ROUNDUP
NATIONAL WEATHER SERVICE CHARLESTON SC
400 AM EST FRI FEB 24 2017

NOTE: "FAIR" INDICATES FEW OR NO CLOUDS BELOW 12,000 FEET WITH NO
SIGNIFICANT WEATHER AND/OR OBSTRUCTIONS TO VISIBILITY.

NOT ALL STATIONS ARE QUALITY CONTROLLED. USE DATA WITH CAUTION...
ESPECIALLY DEWPOINT OBSERVATIONS.

SCZ027-030-031-034>040-042>050-241000-
...SOUTHEAST SOUTH CAROLINA...

CITY           SKY/WX    TMP DP  RH WIND       PRES   REMARKS
N CHARLESTON   PTCLDY    57  55  93 N6        29.86S
WATERFRONT PRK   N/A     60  60 100 N5        29.85S
MOUNT PLEASANT FAIR      59  57  94 CALM      29.86S FOG
JOHNS ISLAND   FAIR      61  59  94 N6        29.86R
PINOPOLIS        N/A     57  57 100 VRB2      29.78S
MONCKS CORNER  FAIR      54  52  94 CALM      29.87S FOG
SUMMERVILLE      N/A     54  54 100 CALM      29.88S FOG
BEAUFORT MCAS  CLEAR     57  57 100 NE7       29.86S
BEAUFORT ARPT  FAIR      59  59 100 NE5       29.85F
HILTON HEAD IS CLEAR     61  61 100 N6        29.86S
WALTERBORO     SUNNY     54  54 100 CALM      29.88S FOG
ALLENDALE      FAIR      57  57 100 CALM      29.86S FOG

...SOUTHERN MIDLANDS AND PEE DEE...

CITY           SKY/WX    TMP DP  RH WIND       PRES   REMARKS
GEORGETOWN     FAIR      54  54 100 NE5       29.88S
KINGSTREE      FAIR      50  48  93 CALM      29.88F
ORANGEBURG     CLEAR     57  55  93 NE5       29.87F
BARNWELL       FAIR      55  54  94 CALM      29.88S FOG
AIKEN          FAIR      50  48  93 CALM      29.92S
MANNING        FAIR      52  50  93 MISG      29.89S
COLUMBIA       CLEAR     51  48  89 CALM      29.88F
SUMTER         CLEAR     54  52  94 NE6       29.87S
FLORENCE       CLEAR     55  55 100 N3        29.90S
MYRTLE BEACH   CLEAR     58  56  93 N6        29.88F
N MYRTLE BEACH CLEAR     57  57 100 NE5       29.88S

$$

GAZ063-065-086>088-099>101-113>116-118-119-134>141-150-241000-
...SOUTHEAST GEORGIA...

CITY           SKY/WX    TMP DP  RH WIND       PRES   REMARKS
SAVANNAH ARPT  PTCLDY    61  58  90 NE8       29.84F
HUNTER AAF     CLEAR     60  60 100 NE7       29.82F
FORT STEWART   PTCLDY    60  58  93 CALM      29.82R
STATESBORO     PTCLDY    55  32  41 CALM      29.87R FOG
SYLVANIA       MOSUNNY  N/A N/A N/A CALM      29.87S FOG
CLAXTON        FAIR     N/A N/A N/A CALM      29.86S HAZE

...CSRA...CENTRAL AND FAR SOUTHEAST GEORGIA...

CITY           SKY/WX    TMP DP  RH WIND       PRES   REMARKS
THOMSON        CLEAR     51  51 100 CALM      29.93S
AUGUSTA-BUSH   PTCLDY    52  51  97 CALM      29.88S FOG
AUGUSTA-DANIEL CLEAR     61  55  81 E5        29.89S
SWAINSBORO     FAIR      61  59  94 NE3       29.88S
VIDALIA        PTCLDY    59  59 100 NE3       29.86S
EASTMAN        FAIR      51  51 100 CALM      29.89S FOG
HAZLEHURST     FAIR      58  58 100 NE3       29.84F FOG
ALMA           PTCLDY    59  59 100 CALM      29.84S
WAYCROSS       FOG       59  59 100 CALM      29.83F VSB 3/4
JESUP          FAIR      61  59  94 CALM      29.84S
BAXLEY         FAIR      59  59 100 CALM      29.84F
BRUNSWICK      CLEAR     63  63 100 N6        29.83S
SAINT SIMONS   MOCLDY    64  61  90 N9        29.81F

$$

SCZ027-028-034-036>038-045-046-048>050-GAZ119-141-241000-
...LAKE AND SUPPLEMENTAL COASTAL OBSERVATIONS...

STATION/POSITION TIME  TEMP    WIND        PRES    WAVE   SWELL
                       AIR SEA DIR/SP/G            HT/PER HT/PER/DIR
                 (UTC) (F)     (DEG/KT/KT) (MB)    (FT/S) (FT/S/D)
WINYAH BAY       0745   62      20/  5     1011.0
LAKE MURRAY      0820   57        CALM     1011.9
ACE BASIN NERRS  NOT AVBL
FORT PULASKI     0848   62 62   30/  3/  5 1010.7F
SAPELO ISLAND    0800   62      20/  7     1010.0

$$

ANZ835-935-AMZ111-154-330-350-352-354-370-450-454-472-241000-
...C-MAN AND BUOY OBSERVATIONS...

STATION/POSITION TIME  TEMP    WIND        PRES    WAVE   SWELL
                       AIR SEA DIR/SP/G            HT/PER HT/PER/DIR
                 (UTC) (F)     (DEG/KT/KT) (MB)    (FT/S) (FT/S/D)
BUOY 41004       0850   70 70   60/ 10/ 12 1009.7S   9/11   8/130/11
BUOY 41008       0750   63 62   10/ 12/ 14 1009.4    6/ 9   5/110/ 9
FOLLY BEACH CMAN 0800   60     350/  6/  8 1011.4S
CAPERS NEARSHORE 0808   61 60   40/ 12/ 14 1010.9F
FRIPP NEARSHORE  0808   63 61   10/ 10/ 12 1010.4R


STATION/POSITION TIME  TEMP    WIND        PRES    WAVE   SWELL
                       AIR SEA DIR/SP/G            HT/PER HT/PER/DIR
                 (UTC) (F)     (DEG/KT/KT) (MB)    (FT/S) (FT/S/D)
5E ST. MARYS GA  0830      63                N/A     6/ 9   2/100/11
FRYING PAN BUOY  0850   71 72  100/ 16/ 19 1010.9F   8/ 9   7/150/ 9
BUOY 41025       0850   71 73  130/ 12/ 14 1012.7S   7/ 7   7/130/ 7
CAPE LOOKOUT NC  0800   64      CALM  /  1 1012.3F
BUOY 41002       0850   69 69   90/ 23/ 29 1007.3F  12/ 8   8/ 80/11
BUOY 41010       NOT AVBL
ST AUGUSTINE FL  0900   65 66  360/ 16/ 17 1009.0R


$$




USA.gov is the U.S. government's official web portal to all federal, state and local government web resources and services.